DW6345 Murcia ES current weather conditions

sailwx.info

Wind from 025 at 3 knots gusting 7

Air temperature 21.1° C
Dewpoint 1.9° C

Last reported at 2020-Feb-22 15:03 UTC.
Time now 2020-Feb-22 16:13 UTC

Location: N 37°60' W 001°06'.
View on Google Maps.

See reports from other nearby stations

  
Tides and Currents Weather Stations Pressure Air Temp Water Temp Dewpoint Dewpoint Depression Visibility Wind Speed Wind Dir Waves Ship Positions
date/time (UTC)wind fromknots sea level pressurealtimeterstation pressurevisibilityair tempwater tempwave heightnotes
2020-Feb-22 15:03 025 3 gusting 7 21.1
2020-Feb-22 14:58 048 2 gusting 7 21.1
2020-Feb-22 14:53 030 2 gusting 7 21.1
2020-Feb-22 14:48 067 2 gusting 6 20.6
2020-Feb-22 14:43 068 3 gusting 6 20.6
2020-Feb-22 14:38 027 4 gusting 6 20.6
2020-Feb-22 14:33 042 3 gusting 7 20.6
2020-Feb-22 14:28 347 2 gusting 6 20.6
2020-Feb-22 14:23 027 3 gusting 6 20.6
2020-Feb-22 14:18 095 4 gusting 6 20.6
2020-Feb-22 14:13 031 4 gusting 6 20.0
2020-Feb-22 14:08 036 4 gusting 8 20.0
2020-Feb-22 14:03 329 2 gusting 7 20.0
2020-Feb-22 13:58 335 1 gusting 6 20.0
2020-Feb-22 13:53 033 3 gusting 6 20.0
2020-Feb-22 13:48 354 4 gusting 4 20.0
2020-Feb-22 13:43 069 3 gusting 6 20.0
2020-Feb-22 13:38 028 2 gusting 6 20.0
2020-Feb-22 13:33 011 3 gusting 6 20.0
2020-Feb-22 13:28 065 4 gusting 5 20.0
2020-Feb-22 13:23 339 2 gusting 6 19.4
2020-Feb-22 13:18 080 1 gusting 7 19.4
2020-Feb-22 13:13 313 1 gusting 4 19.4
2020-Feb-22 13:08 309 1 gusting 5 19.4
2020-Feb-22 13:03 333 1 gusting 6 19.4
2020-Feb-22 12:58 357 1 gusting 4 19.4
2020-Feb-22 12:53 270 1 gusting 4 19.4
2020-Feb-22 12:48 241 1 gusting 4 19.4
2020-Feb-22 12:43 218 1 gusting 2 18.9
2020-Feb-22 12:38 101 1 gusting 4 18.9
2020-Feb-22 12:33 051 1 gusting 4 18.9
2020-Feb-22 12:28 112 0 gusting 2 18.9
2020-Feb-22 12:23 065 1 gusting 1 18.3
2020-Feb-22 12:18 233 1 gusting 2 18.3
2020-Feb-22 12:13 233 1 gusting 4 18.3
2020-Feb-22 12:08 136 1 gusting 4 17.8
2020-Feb-22 12:03 134 1 gusting 4 17.8
2020-Feb-22 11:58 141 1 gusting 2 17.2
2020-Feb-22 11:53 205 1 gusting 4 16.7
2020-Feb-22 11:48 076 1 gusting 4 16.7
2020-Feb-22 11:43 259 2 gusting 4 16.7
2020-Feb-22 11:38 160 2 gusting 6 16.1
2020-Feb-22 11:33 224 2 gusting 4 16.1
2020-Feb-22 11:28 228 2 gusting 5 16.1
2020-Feb-22 11:23 155 2 gusting 6 15.6
2020-Feb-22 11:18 156 2 gusting 6 15.6
2020-Feb-22 11:13 216 2 gusting 4 15.6
2020-Feb-22 11:08 178 1 gusting 5 15.0
2020-Feb-22 11:03 197 1 gusting 4 15.0
2020-Feb-22 10:58 270 1 gusting 4 14.4
2020-Feb-22 10:53 224 1 gusting 5 14.4
2020-Feb-22 10:48 210 1 gusting 5 14.4
2020-Feb-22 10:43 234 1 gusting 4 14.4
2020-Feb-22 10:38 175 1 gusting 4 13.9
2020-Feb-22 10:33 185 1 gusting 4 13.9
2020-Feb-22 10:28 172 1 gusting 4 13.3
2020-Feb-22 10:23 216 1 gusting 4 13.3
2020-Feb-22 10:18 255 1 gusting 4 13.3
2020-Feb-22 10:13 325 1 gusting 4 13.3
2020-Feb-22 10:08 193 1 gusting 4 12.8
2020-Feb-22 10:03 031 2 gusting 1 12.2
2020-Feb-22 09:58 234 4 gusting 4 12.2
2020-Feb-22 09:53 172 4 gusting 5 12.2
2020-Feb-22 09:48 146 4 gusting 6 11.7
2020-Feb-22 09:43 184 2 gusting 6 11.7
2020-Feb-22 09:38 181 1 gusting 6 11.7
2020-Feb-22 09:33 191 1 gusting 4 11.1
2020-Feb-22 09:28 173 1 gusting 4 11.1
2020-Feb-22 09:23 198 2 gusting 4 10.6
2020-Feb-22 09:18 155 2 gusting 5 10.6
2020-Feb-22 09:13 188 2 gusting 5 10.0
2020-Feb-22 09:08 191 1 gusting 5 10.0
2020-Feb-22 09:03 174 1 gusting 4 10.0
2020-Feb-22 08:58 209 1 gusting 4 9.4
2020-Feb-22 08:53 231 1 gusting 4 9.4
2020-Feb-22 08:48 231 1 gusting 4 9.4
2020-Feb-22 08:43 060 2 gusting 4 8.9
2020-Feb-22 08:38 216 2 gusting 4 8.9
2020-Feb-22 08:33 198 2 gusting 4 8.3
2020-Feb-22 08:28 148 2 gusting 4 8.3
2020-Feb-22 08:23 150 3 gusting 5 8.3
2020-Feb-22 08:18 201 4 gusting 5 8.3
2020-Feb-22 08:13 200 4 gusting 5 7.8
2020-Feb-22 08:08 186 4 gusting 6 7.8
2020-Feb-22 08:03 160 3 gusting 6 7.8
2020-Feb-22 07:58 171 2 gusting 6 7.8
2020-Feb-22 07:53 188 3 gusting 5 7.2
2020-Feb-22 07:48 188 4 gusting 5 7.2
2020-Feb-22 07:43 184 2 gusting 5 7.2
2020-Feb-22 07:38 174 1 gusting 5 7.2
2020-Feb-22 07:33 151 2 gusting 4 6.7
2020-Feb-22 07:28 178 2 gusting 4 6.7
2020-Feb-22 07:23 213 3 gusting 4 6.7
2020-Feb-22 07:18 199 4 gusting 5 6.7
2020-Feb-22 07:13 194 4 gusting 5 6.1
2020-Feb-22 07:08 203 4 gusting 5 6.1
2020-Feb-22 07:03 172 4 gusting 5 6.1
2020-Feb-22 06:58 176 4 gusting 6 6.1
2020-Feb-22 06:53 168 4 gusting 6 6.1
2020-Feb-22 06:48 168 4 gusting 5 6.1
2020-Feb-22 06:43 178 4 gusting 6 6.7
2020-Feb-22 06:38 174 4 gusting 6 6.7
2020-Feb-22 06:33 180 2 gusting 6 6.7
2020-Feb-22 06:28 171 2 gusting 5 6.7
2020-Feb-22 06:23 150 2 gusting 4 6.7
2020-Feb-22 06:18 201 1 gusting 4 6.7
2020-Feb-22 06:13 206 2 gusting 4 6.7
2020-Feb-22 06:08 166 2 gusting 4 6.7
2020-Feb-22 06:03 173 3 gusting 5 6.7
2020-Feb-22 05:58 165 4 gusting 5 6.7
2020-Feb-22 05:53 179 4 gusting 5 6.7
2020-Feb-22 05:48 192 4 gusting 5 6.7
2020-Feb-22 05:43 184 2 gusting 6 6.7
2020-Feb-22 05:38 180 1 gusting 6 6.7
2020-Feb-22 05:33 170 1 gusting 4 6.7
2020-Feb-22 05:28 197 1 gusting 4 6.7
2020-Feb-22 05:23 189 1 gusting 2 6.7
2020-Feb-22 05:18 189 1 gusting 2 6.7
2020-Feb-22 05:13 190 1 gusting 4 6.7
2020-Feb-22 05:08 190 1 gusting 4 6.7
2020-Feb-22 05:03 170 2 gusting 4 6.7
2020-Feb-22 04:58 157 2 gusting 2 6.7
2020-Feb-22 04:53 128 2 gusting 4 6.7
2020-Feb-22 04:48 137 1 gusting 4 6.7
2020-Feb-22 04:43 133 1 gusting 4 6.7
2020-Feb-22 04:38 130 1 gusting 2 7.2
2020-Feb-22 04:33 133 1 gusting 2 7.2
2020-Feb-22 04:28 121 1 gusting 2 7.2
2020-Feb-22 04:23 130 1 gusting 4 7.8
2020-Feb-22 04:18 135 1 gusting 4 7.8
2020-Feb-22 04:13 138 2 gusting 4 8.3
2020-Feb-22 04:08 228 2 gusting 4 8.3
2020-Feb-22 04:03 235 2 gusting 4 8.3
2020-Feb-22 03:58 231 2 gusting 4 8.3
2020-Feb-22 03:53 247 3 gusting 5 8.3
2020-Feb-22 03:48 242 4 gusting 5 8.3
2020-Feb-22 03:43 235 2 gusting 6 8.3
2020-Feb-22 03:38 238 2 gusting 6 8.3
2020-Feb-22 03:33 234 2 gusting 6 8.3
2020-Feb-22 03:28 226 1 gusting 4 8.3
2020-Feb-22 03:23 201 1 gusting 2 8.3
2020-Feb-22 03:18 201 1 gusting 2 8.3
2020-Feb-22 03:13 211 2 gusting 4 8.3
2020-Feb-22 03:08 227 2 gusting 4 8.3
2020-Feb-22 03:03 237 2 gusting 5 8.3
2020-Feb-22 02:58 244 1 gusting 4 8.3
2020-Feb-22 02:53 225 1 gusting 4 8.3
2020-Feb-22 02:48 246 1 gusting 4 8.3
2020-Feb-22 02:43 247 2 gusting 4 8.3
2020-Feb-22 02:38 231 2 gusting 5 8.3
2020-Feb-22 02:33 253 2 gusting 5 8.3
2020-Feb-22 02:28 231 2 gusting 5 8.3
2020-Feb-22 02:23 220 3 gusting 5 8.9
2020-Feb-22 02:18 239 4 gusting 5 8.9
2020-Feb-22 02:13 193 4 gusting 6 8.9
2020-Feb-22 02:08 210 4 gusting 6 8.9
2020-Feb-22 02:03 204 4 gusting 6 8.9
2020-Feb-22 01:58 195 4 gusting 6 8.9
2020-Feb-22 01:53 197 4 gusting 5 8.9
2020-Feb-22 01:48 203 4 gusting 5 8.9
2020-Feb-22 01:43 191 2 gusting 5 8.9
2020-Feb-22 01:38 189 2 gusting 5 8.9
2020-Feb-22 01:33 185 2 gusting 5 9.4
2020-Feb-22 01:28 193 1 gusting 5 9.4
2020-Feb-22 01:23 209 0 gusting 4 9.4
2020-Feb-22 01:18 219 9.4
2020-Feb-22 01:13 238 0 9.4
2020-Feb-22 01:08 239 1 gusting 2 9.4
2020-Feb-22 01:03 239 1 gusting 2 9.4
2020-Feb-22 00:58 239 1 gusting 4 9.4
2020-Feb-22 00:53 222 1 gusting 4 9.4
2020-Feb-22 00:49 210 1 gusting 4 9.4
2020-Feb-22 00:43 204 1 gusting 4 9.4
2020-Feb-22 00:38 186 1 gusting 4 9.4
2020-Feb-22 00:33 184 2 gusting 4 10.0
2020-Feb-22 00:28 168 2 gusting 4 10.0
2020-Feb-22 00:23 169 2 gusting 4 10.0
2020-Feb-22 00:18 196 2 gusting 5 10.0
2020-Feb-22 00:13 194 2 gusting 5 10.0
2020-Feb-22 00:08 202 2 gusting 4 10.0
2020-Feb-22 00:03 218 3 gusting 4 10.0
2020-Feb-21 23:58 219 4 gusting 5 10.0
2020-Feb-21 23:53 207 3 gusting 6 10.0
2020-Feb-21 23:48 224 2 gusting 5 10.0
2020-Feb-21 23:43 207 3 gusting 5 10.0
2020-Feb-21 23:38 204 4 gusting 5 10.0
2020-Feb-21 23:33 207 2 gusting 5 10.0
2020-Feb-21 23:28 209 2 gusting 5 10.0
2020-Feb-21 23:23 215 2 gusting 5 10.6
2020-Feb-21 23:18 205 2 gusting 4 10.6
2020-Feb-21 23:13 204 2 gusting 4 10.6
2020-Feb-21 23:08 189 2 gusting 4 10.6
2020-Feb-21 23:03 191 3 gusting 5 10.6
2020-Feb-21 22:58 202 4 gusting 5 10.6
2020-Feb-21 22:53 186 2 gusting 6 10.6
2020-Feb-21 22:48 199 2 gusting 4 10.6
2020-Feb-21 22:43 188 2 gusting 5 10.6
2020-Feb-21 22:38 171 2 gusting 5 10.6
2020-Feb-21 22:33 181 2 gusting 5 10.6
2020-Feb-21 22:28 170 1 gusting 4 10.6
2020-Feb-21 22:23 177 1 gusting 4 10.6
2020-Feb-21 22:18 151 1 gusting 4 10.6
2020-Feb-21 22:13 165 0 gusting 4 10.6
2020-Feb-21 22:08 215 11.1
2020-Feb-21 22:03 217 11.1
2020-Feb-21 21:58 227 11.1
2020-Feb-21 21:53 227 0 gusting 0 11.1
2020-Feb-21 21:48 227 1 gusting 1 11.1
2020-Feb-21 21:43 227 1 gusting 2 11.1
2020-Feb-21 21:38 209 1 gusting 2 11.1
2020-Feb-21 21:33 210 1 gusting 2 11.1
2020-Feb-21 21:28 169 0 gusting 4 11.1
2020-Feb-21 21:23 190 0 gusting 4 11.1
2020-Feb-21 21:18 021 11.1
2020-Feb-21 21:13 021 11.1
2020-Feb-21 21:08 021 11.1
2020-Feb-21 21:03 021 0 11.1
2020-Feb-21 20:58 021 0 gusting 1 11.1
2020-Feb-21 20:53 021 1 gusting 1 11.1
2020-Feb-21 20:48 021 1 gusting 2 11.1
2020-Feb-21 20:43 021 1 gusting 2 11.1
2020-Feb-21 20:38 021 1 gusting 1 11.1
2020-Feb-21 20:33 021 1 gusting 1 11.1
2020-Feb-21 20:28 021 1 gusting 4 11.1
2020-Feb-21 20:23 029 1 gusting 4 11.1
2020-Feb-21 20:18 036 1 gusting 4 11.7
2020-Feb-21 20:13 035 1 gusting 4 11.7
2020-Feb-21 20:08 022 1 gusting 5 11.7
2020-Feb-21 20:03 008 2 gusting 5 11.7
2020-Feb-21 19:58 310 2 gusting 4 11.7
2020-Feb-21 19:53 012 2 gusting 4 12.2
2020-Feb-21 19:48 023 2 gusting 5 12.2
2020-Feb-21 19:43 048 2 gusting 5 12.2
2020-Feb-21 19:38 040 1 gusting 5 12.2
2020-Feb-21 19:33 055 1 gusting 4 12.2
2020-Feb-21 19:28 035 1 gusting 4 12.8
2020-Feb-21 19:23 045 2 gusting 4 12.8
2020-Feb-21 19:18 060 2 gusting 4 12.8
2020-Feb-21 19:13 051 2 gusting 5 12.8
2020-Feb-21 19:08 047 2 gusting 5 12.8
2020-Feb-21 19:03 035 2 gusting 5 12.8
2020-Feb-21 18:58 036 2 gusting 5 12.8
2020-Feb-21 18:53 046 3 gusting 6 12.8
2020-Feb-21 18:48 045 4 gusting 5 13.3
2020-Feb-21 18:43 034 4 gusting 6 13.3
2020-Feb-21 18:38 030 4 gusting 6 13.3
2020-Feb-21 18:33 045 4 gusting 6 13.3
2020-Feb-21 18:28 044 4 gusting 6 13.3
2020-Feb-21 18:23 067 4 gusting 6 13.3
2020-Feb-21 18:18 039 5 gusting 6 13.9
2020-Feb-21 18:13 052 5 gusting 6 13.9
2020-Feb-21 18:08 040 5 gusting 7 13.9
2020-Feb-21 18:03 040 5 gusting 7 13.9
2020-Feb-21 17:58 031 5 gusting 6 14.4
2020-Feb-21 17:53 041 5 gusting 7 14.4
2020-Feb-21 17:48 041 5 gusting 6 14.4
2020-Feb-21 17:43 049 5 gusting 7 15.0
2020-Feb-21 17:38 042 6 gusting 7 15.0
2020-Feb-21 17:33 036 4 gusting 8 15.0
2020-Feb-21 17:28 050 4 gusting 8 15.0
2020-Feb-21 17:23 025 4 gusting 6 15.6
2020-Feb-21 17:18 047 4 gusting 6 15.6
2020-Feb-21 17:13 057 4 gusting 6 15.6
2020-Feb-21 17:08 068 4 gusting 7 15.6
2020-Feb-21 17:03 070 4 gusting 6 15.6
2020-Feb-21 16:58 079 5 gusting 6 16.1
2020-Feb-21 16:53 057 5 gusting 6 16.1
2020-Feb-21 16:48 070 5 gusting 8 16.1
2020-Feb-21 16:43 084 5 gusting 10 16.1
2020-Feb-21 16:38 043 5 gusting 7 16.1
2020-Feb-21 16:33 063 4 gusting 10 16.1
2020-Feb-21 16:28 049 4 gusting 10 16.1
2020-Feb-21 16:23 059 4 gusting 7 16.7
2020-Feb-21 16:18 043 4 gusting 7 16.7
2020-Feb-21 16:13 047 4 gusting 8 16.7
2020-Feb-21 16:08 032 5 gusting 7 16.7
2020-Feb-21 16:03 055 4 gusting 7 16.7
2020-Feb-21 15:58 040 4 gusting 12 16.7
2020-Feb-21 15:53 074 5 gusting 7 16.7
2020-Feb-21 15:48 063 5 gusting 7 16.7
2020-Feb-21 15:43 091 4 gusting 10 16.7
2020-Feb-21 15:38 050 4 gusting 10 16.7
2020-Feb-21 15:33 055 4 gusting 7 16.7
2020-Feb-21 15:28 080 4 gusting 6 16.7
2020-Feb-21 15:23 038 4 gusting 8 17.2
2020-Feb-21 15:18 073 4 gusting 10 17.2
2020-Feb-21 15:13 088 4 gusting 6 16.7
2020-Feb-21 15:08 047 4 gusting 8 17.2
2020-Feb-21 15:03 031 4 gusting 5 17.2
2020-Feb-21 14:58 037 4 gusting 6 16.7
2020-Feb-21 14:53 040 4 gusting 6 17.2
2020-Feb-21 14:48 036 4 gusting 6 16.7
2020-Feb-21 14:43 054 4 gusting 5 16.7
2020-Feb-21 14:38 034 4 gusting 7 16.7
2020-Feb-21 14:33 038 4 gusting 6 16.7
2020-Feb-21 14:28 033 4 gusting 7 16.7
2020-Feb-21 14:23 117 4 gusting 6 16.7
2020-Feb-21 14:18 107 4 gusting 6 16.1
2020-Feb-21 14:13 123 4 gusting 6 16.1
2020-Feb-21 14:08 122 4 gusting 6 16.1
2020-Feb-21 14:03 129 4 gusting 6 16.1
2020-Feb-21 13:58 047 4 gusting 6 16.1
2020-Feb-21 13:53 041 2 gusting 8 16.1
2020-Feb-21 13:48 051 1 gusting 10 16.7
2020-Feb-21 13:43 129 2 gusting 4 16.1
2020-Feb-21 13:38 242 2 gusting 4 16.1
2020-Feb-21 13:33 305 3 gusting 4 16.1
2020-Feb-21 13:28 054 4 gusting 6 15.6
2020-Feb-21 13:23 088 2 gusting 6 15.6
2020-Feb-21 13:18 130 1 gusting 6 15.6
2020-Feb-21 13:13 025 1 gusting 5 15.6
2020-Feb-21 13:08 175 1 gusting 4 15.6
2020-Feb-21 13:03 307 1 gusting 2 15.6
2020-Feb-21 12:58 022 1 gusting 5 15.0
2020-Feb-21 12:53 157 1 gusting 4 15.0
2020-Feb-21 12:48 109 1 gusting 4 15.0
2020-Feb-21 12:43 068 2 gusting 5 15.0
2020-Feb-21 12:38 074 2 gusting 5 15.0
2020-Feb-21 12:33 129 3 gusting 5 14.4
2020-Feb-21 12:28 143 4 gusting 6 14.4
2020-Feb-21 12:23 123 2 gusting 6 14.4
2020-Feb-21 12:18 066 2 gusting 6 14.4
2020-Feb-21 12:13 051 2 gusting 7 14.4
2020-Feb-21 12:08 031 1 gusting 5 14.4
2020-Feb-21 12:03 351 2 gusting 4 14.4
2020-Feb-21 11:58 171 4 gusting 5 14.4
2020-Feb-21 11:53 344 4 gusting 6 14.4
2020-Feb-21 11:48 038 4 gusting 6 14.4
2020-Feb-21 11:43 025 2 gusting 6 14.4
2020-Feb-21 11:38 043 1 gusting 8 14.4
2020-Feb-21 11:33 344 1 gusting 7 14.4
2020-Feb-21 11:28 019 1 gusting 2 14.4
2020-Feb-21 11:23 230 1 gusting 2 14.4
2020-Feb-21 11:18 041 1 gusting 4 13.9
2020-Feb-21 11:13 151 3 gusting 4 13.9
2020-Feb-21 11:08 116 4 gusting 5 13.3
2020-Feb-21 11:03 187 4 gusting 6 12.8
2020-Feb-21 10:58 149 4 gusting 6 12.8
2020-Feb-21 10:53 181 4 gusting 6 12.8
2020-Feb-21 10:48 172 4 gusting 5 12.2
2020-Feb-21 10:43 216 4 gusting 6 12.2
2020-Feb-21 10:38 176 4 gusting 6 12.2
2020-Feb-21 10:33 181 4 gusting 6 11.7
2020-Feb-21 10:28 190 4 gusting 6 11.7
2020-Feb-21 10:23 164 4 gusting 6 11.7
2020-Feb-21 10:18 204 4 gusting 6 11.1
2020-Feb-21 10:13 208 4 gusting 6 11.1
2020-Feb-21 10:08 210 4 gusting 7 11.1
2020-Feb-21 10:03 185 4 gusting 6 10.6
2020-Feb-21 09:58 185 4 gusting 6 10.6
2020-Feb-21 09:53 218 5 gusting 6 10.6
2020-Feb-21 09:48 190 6 gusting 6 10.0
2020-Feb-21 09:43 203 5 gusting 7 10.0
2020-Feb-21 09:38 206 5 gusting 6 10.0
2020-Feb-21 09:33 173 5 gusting 6 10.0
2020-Feb-21 09:28 204 5 gusting 7 9.4
2020-Feb-21 09:23 157 4 gusting 7 9.4
2020-Feb-21 09:18 190 4 gusting 7 9.4
2020-Feb-21 09:13 171 4 gusting 6 9.4
2020-Feb-21 09:08 181 4 gusting 6 9.4
2020-Feb-21 09:03 221 4 gusting 6 9.4
2020-Feb-21 08:58 213 4 gusting 6 9.4
2020-Feb-21 08:53 200 4 gusting 6 8.9
2020-Feb-21 08:48 218 4 gusting 6 8.9
2020-Feb-21 08:43 188 4 gusting 6 8.9
2020-Feb-21 08:38 175 4 gusting 6 8.9
2020-Feb-21 08:33 175 4 gusting 6 8.9
2020-Feb-21 08:28 174 4 gusting 6 8.3
2020-Feb-21 08:23 187 4 gusting 6 8.3
2020-Feb-21 08:18 171 4 gusting 6 8.3
2020-Feb-21 08:13 183 4 gusting 6 8.3
2020-Feb-21 08:08 207 4 gusting 6 8.3
2020-Feb-21 08:03 192 2 gusting 6 8.3
2020-Feb-21 07:58 177 2 gusting 6 8.3
2020-Feb-21 07:53 200 3 gusting 4 8.3
2020-Feb-21 07:48 191 4 gusting 5 7.8
2020-Feb-21 07:43 195 4 gusting 5 7.8
2020-Feb-21 07:38 176 4 gusting 6 7.8
2020-Feb-21 07:33 175 4 gusting 6 7.8
2020-Feb-21 07:28 178 4 gusting 6 7.8
2020-Feb-21 07:23 189 3 gusting 6 7.8
2020-Feb-21 07:18 194 2 gusting 6 7.2
2020-Feb-21 07:13 166 2 gusting 5 7.2
2020-Feb-21 07:08 161 2 gusting 4 7.2
2020-Feb-21 07:03 178 2 gusting 5 7.2
2020-Feb-21 06:58 176 2 gusting 5 6.7
2020-Feb-21 06:53 167 2 gusting 5 6.7
2020-Feb-21 06:48 174 1 gusting 5 6.7
2020-Feb-21 06:43 175 1 gusting 4 6.7
2020-Feb-21 06:38 162 1 gusting 4 6.7
2020-Feb-21 06:33 057 1 gusting 2 7.2
2020-Feb-21 06:28 026 1 gusting 2 7.2
2020-Feb-21 06:23 001 1 gusting 2 7.2
2020-Feb-21 06:18 341 1 gusting 1 7.8
2020-Feb-21 06:13 341 2 gusting 2 7.8
2020-Feb-21 06:08 178 2 gusting 4 7.8
2020-Feb-21 06:03 161 2 gusting 4 8.3
2020-Feb-21 05:58 177 2 gusting 5 8.3
2020-Feb-21 05:53 192 2 gusting 5 8.3
2020-Feb-21 05:48 171 2 gusting 5 8.3
2020-Feb-21 05:43 174 2 gusting 4 8.3
2020-Feb-21 05:38 157 2 gusting 5 8.3
2020-Feb-21 05:33 166 3 gusting 4 8.3
2020-Feb-21 05:28 186 4 gusting 5 8.3
2020-Feb-21 05:23 164 4 gusting 5 7.8
2020-Feb-21 05:18 166 4 gusting 6 7.8
2020-Feb-21 05:13 166 4 gusting 6 7.8
2020-Feb-21 05:08 166 4 gusting 5 7.8
2020-Feb-21 05:03 166 4 gusting 5 7.8
2020-Feb-21 04:58 159 4 gusting 4 7.8
2020-Feb-21 04:53 176 2 gusting 5 7.8
2020-Feb-21 04:48 162 1 gusting 5 7.8
2020-Feb-21 04:43 157 2 gusting 4 7.8
2020-Feb-21 04:38 142 2 gusting 4 7.8
2020-Feb-21 04:33 148 2 gusting 4 7.8
2020-Feb-21 04:28 148 1 gusting 4 7.8
2020-Feb-21 04:23 145 2 gusting 4 8.3
2020-Feb-21 04:18 146 2 gusting 4 8.3
2020-Feb-21 04:13 176 3 gusting 4 8.3
2020-Feb-21 04:08 211 4 gusting 6 8.3
2020-Feb-21 04:03 182 2 gusting 5 7.8
2020-Feb-21 03:58 176 1 gusting 5 7.8
2020-Feb-21 03:53 159 1 gusting 4 7.8
2020-Feb-21 03:48 135 1 gusting 2 7.8
2020-Feb-21 03:43 135 1 gusting 2 7.8
2020-Feb-21 03:38 135 1 gusting 4 7.8
2020-Feb-21 03:33 133 1 gusting 4 7.8
2020-Feb-21 03:28 114 1 gusting 4 7.8
2020-Feb-21 03:23 113 1 gusting 4 8.3
2020-Feb-21 03:18 124 1 gusting 4 8.3
2020-Feb-21 03:13 153 1 gusting 2 8.3
2020-Feb-21 03:08 153 1 gusting 2 8.3
2020-Feb-21 03:03 153 1 gusting 2 8.9
2020-Feb-21 02:58 153 1 gusting 2 8.9
2020-Feb-21 02:53 154 1 gusting 2 8.9
2020-Feb-21 02:48 154 1 gusting 1 8.9
2020-Feb-21 02:43 154 1 gusting 1 8.9
2020-Feb-21 02:38 167 1 gusting 2 8.9
2020-Feb-21 02:33 187 1 gusting 2 9.4
2020-Feb-21 02:28 189 1 gusting 2 9.4
2020-Feb-21 02:23 191 1 gusting 4 9.4
2020-Feb-21 02:18 191 1 gusting 1 9.4
2020-Feb-21 02:13 191 1 gusting 1 9.4
2020-Feb-21 02:08 191 1 gusting 1 10.0
2020-Feb-21 02:03 191 1 gusting 1 10.0
2020-Feb-21 01:58 191 1 gusting 2 10.0
2020-Feb-21 01:53 191 1 gusting 2 10.0
2020-Feb-21 01:48 202 1 gusting 4 10.0
2020-Feb-21 01:43 191 1 gusting 4 10.0
2020-Feb-21 01:38 187 1 gusting 4 10.0
2020-Feb-21 01:33 223 2 gusting 5 10.0
2020-Feb-21 01:28 217 2 gusting 4 10.0
2020-Feb-21 01:23 206 2 gusting 4 10.0
2020-Feb-21 01:18 196 1 gusting 4 10.0
2020-Feb-21 01:13 217 2 gusting 4 10.0
2020-Feb-21 01:08 215 2 gusting 4 10.0
2020-Feb-21 01:03 207 3 gusting 5 10.0
2020-Feb-21 00:58 215 4 gusting 6 10.0
2020-Feb-21 00:53 213 4 gusting 5 10.0
2020-Feb-21 00:48 197 4 gusting 5 10.0
2020-Feb-21 00:43 201 4 gusting 5 10.0
2020-Feb-21 00:38 192 4 gusting 6 10.0
2020-Feb-21 00:33 190 4 gusting 6 10.0
2020-Feb-21 00:28 180 4 gusting 6 10.0
2020-Feb-21 00:23 184 3 gusting 6 10.0
2020-Feb-21 00:18 184 2 gusting 5 10.6
2020-Feb-21 00:13 184 2 gusting 5 10.6
2020-Feb-21 00:08 199 2 gusting 4 10.6
2020-Feb-21 00:03 189 2 gusting 4 10.6
2020-Feb-20 23:58 201 1 gusting 4 10.6
2020-Feb-20 23:53 218 3 gusting 4 10.6
2020-Feb-20 23:48 215 4 gusting 4 10.6
2020-Feb-20 23:43 194 4 gusting 5 10.6
2020-Feb-20 23:38 197 4 gusting 6 10.6
2020-Feb-20 23:33 194 2 gusting 6 10.6
2020-Feb-20 23:28 194 2 gusting 5 10.6
2020-Feb-20 23:23 206 3 gusting 4 10.6
2020-Feb-20 23:18 198 4 gusting 6 10.6
2020-Feb-20 23:13 202 4 gusting 6 10.6
2020-Feb-20 23:08 190 4 gusting 6 10.6
2020-Feb-20 23:03 185 2 gusting 6 10.6
2020-Feb-20 22:58 165 1 gusting 5 11.1
2020-Feb-20 22:53 153 1 gusting 6 11.1
2020-Feb-20 22:48 127 1 gusting 4 11.1
2020-Feb-20 22:43 095 1 gusting 4 11.1
2020-Feb-20 22:38 094 1 gusting 2 11.1
2020-Feb-20 22:33 094 0 gusting 2 11.1
2020-Feb-20 22:28 070 11.1
2020-Feb-20 22:23 069 11.1
2020-Feb-20 22:18 070 11.1
2020-Feb-20 22:13 070 11.1
2020-Feb-20 22:08 070 11.1
2020-Feb-20 22:03 070 11.1
2020-Feb-20 21:58 070 11.1
2020-Feb-20 21:53 070 11.1
2020-Feb-20 21:48 069 11.1
2020-Feb-20 21:43 070 0 gusting 1 11.1
2020-Feb-20 21:38 070 0 11.1
2020-Feb-20 21:33 070 1 gusting 0 11.1
2020-Feb-20 21:28 070 1 gusting 1 11.1
2020-Feb-20 21:23 070 0 gusting 1 11.1
2020-Feb-20 21:18 069 11.1
2020-Feb-20 21:13 355 0 gusting 2 11.7
2020-Feb-20 21:08 327 0 gusting 1 11.7
2020-Feb-20 21:03 327 1 gusting 4 11.7
2020-Feb-20 20:58 327 1 gusting 1 11.7
2020-Feb-20 20:53 327 1 gusting 2 11.7
2020-Feb-20 20:48 327 1 gusting 2 11.7
2020-Feb-20 20:38 358 2 gusting 4 11.7
2020-Feb-20 20:33 025 2 gusting 5 11.7
2020-Feb-20 20:28 024 2 gusting 6 11.7
2020-Feb-20 20:23 010 2 gusting 4 11.7
2020-Feb-20 20:18 045 1 gusting 5 11.7
2020-Feb-20 20:13 024 2 gusting 4 11.7
2020-Feb-20 20:08 047 4 gusting 4 11.7
2020-Feb-20 20:03 046 4 gusting 5 11.7
2020-Feb-20 19:58 036 4 gusting 5 11.7
2020-Feb-20 19:53 045 4 gusting 6 11.7
2020-Feb-20 19:48 042 4 gusting 6 11.7
2020-Feb-20 19:43 041 4 gusting 5 11.7
2020-Feb-20 19:38 037 4 gusting 6 11.7
2020-Feb-20 19:33 036 4 gusting 6 12.2
2020-Feb-20 19:28 038 4 gusting 6 12.2
2020-Feb-20 19:23 039 2 gusting 6 12.2
2020-Feb-20 19:18 049 2 gusting 6 12.2
2020-Feb-20 19:13 061 3 gusting 5 12.8
2020-Feb-20 19:08 022 4 gusting 5 12.8
2020-Feb-20 19:03 037 4 gusting 5 12.8
2020-Feb-20 18:58 038 4 gusting 6 13.3
2020-Feb-20 18:53 050 4 gusting 6 13.3
2020-Feb-20 18:48 037 4 gusting 6 13.3
2020-Feb-20 18:43 034 4 gusting 6 13.9
2020-Feb-20 18:38 030 4 gusting 6 13.9
2020-Feb-20 18:33 052 4 gusting 6 13.9
2020-Feb-20 18:28 070 4 gusting 6 14.4
2020-Feb-20 18:23 036 4 gusting 6 14.4
2020-Feb-20 18:18 050 4 gusting 6 14.4
2020-Feb-20 18:13 023 2 gusting 6 14.4
2020-Feb-20 18:08 028 2 gusting 7 14.4
2020-Feb-20 18:03 078 3 gusting 5 15.0
2020-Feb-20 17:58 041 4 gusting 5 15.0
2020-Feb-20 17:53 062 2 gusting 5 15.0
2020-Feb-20 17:48 064 2 gusting 6 15.6
2020-Feb-20 17:43 039 2 gusting 5 15.6
2020-Feb-20 17:38 068 1 gusting 5 15.6
2020-Feb-20 17:33 082 3 gusting 5 16.1
2020-Feb-20 17:28 101 4 gusting 5 16.1
2020-Feb-20 17:23 074 4 gusting 5 16.1
2020-Feb-20 17:18 085 4 gusting 6 16.1
2020-Feb-20 17:13 054 4 gusting 6 16.1
2020-Feb-20 17:08 108 5 gusting 6 16.7
2020-Feb-20 17:03 099 5 gusting 6 16.7
2020-Feb-20 16:58 105 5 gusting 8 16.7
2020-Feb-20 16:53 110 4 gusting 7 16.7
2020-Feb-20 16:48 124 4 gusting 7 16.7
2020-Feb-20 16:43 114 4 gusting 6 16.7
2020-Feb-20 16:38 150 4 gusting 6 16.7
2020-Feb-20 16:33 094 4 gusting 6 16.7
2020-Feb-20 16:28 096 5 gusting 6 16.7
2020-Feb-20 16:23 065 5 gusting 6 16.7
2020-Feb-20 16:18 045 5 gusting 6 16.7
2020-Feb-20 16:13 049 5 gusting 7 16.7
2020-Feb-20 16:08 033 6 gusting 8 16.7
2020-Feb-20 16:03 032 6 gusting 8 17.2